This demonstration page uses our WeatherBlox Daily Observations layout. Learn more.

Left ArrowRight Arrow

40.92501, -98.34201

Hourly Observations for June 5, 2015

Temp ( °F °C ) Dew Point ( °F °C ) Humidity (%) Winds ( mph kmh ) Pressure ( in mb ) Visibility ( mi km ) Precip ( " mm )
12:21 am 00:21 Cloudy 63 17 61 16 94 94 VRB 6 9 30.03 1017 10 16 0.00 0.00
12:31 am 00:31 Cloudy 63 17 61 16 94 94 SSE 7 11 30.03 1017 10 16 0.00 0.00
12:39 am 00:39 Cloudy with Nearby Thunderstorms 63 17.2 61 16.1 93 93 SSE 6 9 30.03 1017 10 16 0.00 0.00
12:53 am 00:53 Mostly Cloudy with Nearby Thunderstorms 63 17.2 61 16.1 93 93 NNE 6 9 30.03 1017 10 16 0.00 0.00
1:53 am 01:53 Cloudy with Nearby Thunderstorms 63 17.2 62 16.7 97 97 S 5 7 30.07 1018 10 16 0.00 0.00
2:14 am 02:14 Cloudy 64 18 63 17 94 94 SSW 8 13 30.00 1016 10 16 0.00 0.00
2:53 am 02:53 Cloudy 62 16.7 60 15.6 93 93 S 13 20 30.06 1018 10 16 0.00 0.00
3:53 am 03:53 Cloudy 62 16.7 60 15.6 93 93 S 6 9 30.01 1016 10 16 0.00 0.00
4:19 am 04:19 Partly Cloudy 62 16.7 60 15.6 93 93 ESE 5 7 29.94 1014 10 16 0.00 0.00
4:42 am 04:42 Mostly Cloudy 63 17 61 16 94 94 Calm 30.00 1016 10 16 0.00 0.00
4:53 am 04:53 Mostly Cloudy 62 16.7 60 15.6 93 93 Calm 30.03 1017 10 16 0.00 0.00
5:21 am 05:21 Partly Cloudy 61 16.1 59 15 93 93 WSW 7 11 30.03 1017 10 16 0.00 0.00
5:45 am 05:45 Mostly Cloudy 62 16.7 60 15.6 93 93 WSW 5 7 30.03 1017 9 14 0.00 0.00
5:53 am 05:53 Mostly Cloudy 62 16.7 60 15.6 93 93 VRB 3 6 30.05 1018 8 13 0.00 0.00
6:53 am 06:53 Cloudy 63 17.2 60 15.6 90 90 WNW 6 9 30.08 1019 10 16 0.00 0.00
7:53 am 07:53 Cloudy 63 17.2 60 15.6 90 90 NNW 3 6 30.09 1019 10 16 0.00 0.00
8:53 am 08:53 Cloudy 65 18.3 60 15.6 84 84 WSW 3 6 30.12 1020 10 16 0.00 0.00
9:04 am 09:04 Cloudy 64 18 61 16 88 88 VRB 3 6 30.09 1019 10 16 0.00 0.00
9:53 am 09:53 Cloudy 66 18.9 61 16.1 84 84 WNW 5 7 30.14 1021 10 16 0.00 0.00
10:26 am 10:26 Cloudy 66 18.9 61 16.1 84 84 SSW 3 6 30.09 1019 10 16 0.00 0.00
10:53 am 10:53 Cloudy 68 20 61 16.1 78 78 Calm 30.13 1020 10 16 0.00 0.00
11:53 am 11:53 Cloudy 69 20.6 61 16.1 76 76 ENE 6 9 30.10 1019 10 16 0.00 0.00
12:53 pm 12:53 Cloudy 70 21.1 62 16.7 76 76 SSE 5 7 30.10 1019 10 16 0.00 0.00
1:53 pm 13:53 Partly Cloudy 73 22.8 62 16.7 69 69 VRB 3 6 30.10 1019 10 16 0.00 0.00
2:53 pm 14:53 Mostly Sunny 74 23.3 61 16.1 64 64 Calm 30.09 1019 10 16 0.00 0.00
3:19 pm 15:19 Mostly Cloudy 77 25 63 17 61 61 S 3 6 30.03 1017 10 16 0.00 0.00
3:38 pm 15:38 Partly Cloudy 75 24 63 17 65 65 NNW 3 6 30.03 1017 10 16 0.00 0.00
3:53 pm 15:53 Mostly Sunny 77 25 63 17.2 62 62 VRB 5 7 30.08 1019 10 16 0.00 0.00
4:53 pm 16:53 Partly Cloudy 77 25 62 16.7 60 60 Calm 30.08 1019 10 16 0.00 0.00
5:53 pm 17:53 Sunny 78 25.6 62 16.7 58 58 WSW 3 6 30.06 1018 10 16 0.00 0.00
6:53 pm 18:53 Sunny 77 25 62 16.7 60 60 E 5 7 30.04 1017 10 16 0.00 0.00
7:53 pm 19:53 Sunny 76 24.4 63 17.2 64 64 ENE 8 13 30.02 1017 10 16 0.00 0.00
8:53 pm 20:53 Sunny 73 22.8 65 18.3 76 76 ESE 6 9 30.03 1017 10 16 0.00 0.00
9:53 pm 21:53 Mostly Cloudy 71 21.7 65 18.3 81 81 SSE 6 9 30.05 1018 10 16 0.00 0.00
10:53 pm 22:53 Clear 70 21.1 64 17.8 82 82 SE 6 9 30.05 1018 10 16 0.00 0.00
11:53 pm 23:53 Mostly Clear 70 21.1 64 17.8 82 82 SE 8 13 30.02 1017 10 16 0.00 0.00

Powered by AerisWeather